,,PA_Meas_PMT16A,,PR_Meas_QMR101_102,,RH_Meas_QMH101,,SR_Meas_QMS101,,TA_Meas_QMH101,,GenWind,,GenWind,
time,status,PA,status,PR,status,RH,status,SR,status,TA,status,DirAvg,status,SpdAvg,
2012-12-17, 00:00:04,VALID,917.527,VALID,0,VALID,96.9089,VALID,0,VALID,19.4313,VALID,50,VALID,0,
2012-12-17, 00:01:04,VALID,917.513,VALID,0,VALID,96.9089,VALID,0,VALID,19.4313,VALID,50,VALID,0,
2012-12-17, 00:02:04,VALID,917.499,VALID,0,VALID,96.947,VALID,0,VALID,19.4313,VALID,50,VALID,0,
2012-12-17, 00:03:04,VALID,917.492,VALID,0,VALID,96.9394,VALID,0,VALID,19.4313,VALID,50,VALID,0,
2012-12-17, 00:04:04,VALID,917.516,VALID,0,VALID,96.9622,VALID,0,VALID,19.4132,VALID,50,VALID,0,
2012-12-17, 00:05:04,VALID,917.504,VALID,0,VALID,96.9622,VALID,0,VALID,19.3923,VALID,50,VALID,0,
2012-12-17, 00:06:04,VALID,917.492,VALID,0,VALID,96.9698,VALID,0,VALID,19.4118,VALID,50,VALID,0,
2012-12-17, 00:07:04,VALID,917.503,VALID,0,VALID,97.0003,VALID,0,VALID,19.4118,VALID,50,VALID,0,
2012-12-17, 00:08:04,VALID,917.487,VALID,0,VALID,96.9927,VALID,0,VALID,19.3728,VALID,50,VALID,0,
2012-12-17, 00:09:04,VALID,917.475,VALID,0,VALID,96.9851,VALID,0,VALID,19.3937,VALID,120,VALID,0,
2012-12-17, 00:10:04,VALID,917.429,VALID,0,VALID,97.0156,VALID,0,VALID,19.3937,VALID,123,VALID,0,
2012-12-17, 00:11:04,VALID,917.403,VALID,0,VALID,97.0308,VALID,0,VALID,19.4132,VALID,123,VALID,0,
2012-12-17, 00:12:04,VALID,917.424,VALID,0,VALID,97.0156,VALID,0,VALID,19.3742,VALID,123,VALID,0,
2012-12-17, 00:13:04,VALID,917.38,VALID,0,VALID,97.0308,VALID,0,VALID,19.3143,VALID,123,VALID,0,
2012-12-17, 00:14:04,VALID,917.382,VALID,0,VALID,97.0385,VALID,0,VALID,19.3143,VALID,123,VALID,0,
2012-12-17, 00:15:04,VALID,917.362,VALID,0,VALID,97.0308,VALID,0,VALID,19.3157,VALID,123,VALID,0,
2012-12-17, 00:16:04,VALID,917.329,VALID,0,VALID,97.0232,VALID,0,VALID,19.2767,VALID,123,VALID,0,
2012-12-17, 00:17:04,VALID,917.296,VALID,0,VALID,97.0461,VALID,0,VALID,19.2558,VALID,123,VALID,0,
2012-12-17, 00:18:04,VALID,917.279,VALID,0,VALID,97.0308,VALID,0,VALID,19.2767,VALID,123,VALID,0,
2012-12-17, 00:19:04,VALID,917.247,VALID,0,VALID,97.0537,VALID,0,VALID,19.2962,VALID,123,VALID,0,
2012-12-17, 00:20:04,VALID,917.246,VALID,0,VALID,97.0461,VALID,0,VALID,19.2363,VALID,123,VALID,0,
2012-12-17, 00:21:04,VALID,917.265,VALID,0,VALID,97.0766,VALID,0,VALID,19.2558,VALID,123,VALID,0,
2012-12-17, 00:22:04,VALID,917.261,VALID,0,VALID,97.0613,VALID,0,VALID,19.2377,VALID,123,VALID,0,
2012-12-17, 00:23:04,VALID,917.269,VALID,0,VALID,97.0461,VALID,0,VALID,19.2182,VALID,122,VALID,0,
2012-12-17, 00:24:04,VALID,917.237,VALID,0,VALID,97.0232,VALID,0,VALID,19.1973,VALID,122,VALID,0,
2012-12-17, 00:25:04,VALID,917.195,VALID,0,VALID,97.008,VALID,0,VALID,19.1973,VALID,118,VALID,0,
2012-12-17, 00:26:04,VALID,917.194,VALID,0,VALID,97.0003,VALID,0,VALID,19.1973,VALID,115,VALID,0,
2012-12-17, 00:27:04,VALID,917.234,VALID,0,VALID,96.9698,VALID,0,VALID,19.2182,VALID,115,VALID,0,
2012-12-17, 00:28:04,VALID,917.184,VALID,0,VALID,96.947,VALID,0,VALID,19.1778,VALID,116,VALID,0,
2012-12-17, 00:29:04,VALID,917.207,VALID,0,VALID,96.9241,VALID,0,VALID,19.1388,VALID,103,VALID,0,
2012-12-17, 00:30:04,VALID,917.183,VALID,0,VALID,96.8936,VALID,0,VALID,19.1388,VALID,110,VALID,0,
2012-12-17, 00:31:04,VALID,917.158,VALID,0,VALID,96.8936,VALID,0,VALID,19.1207,VALID,108,VALID,0,
2012-12-17, 00:32:04,VALID,917.121,VALID,0,VALID,96.8936,VALID,0,VALID,19.0998,VALID,112,VALID,0,
2012-12-17, 00:33:04,VALID,917.117,VALID,0,VALID,96.9089,VALID,0,VALID,19.0803,VALID,109,VALID,0,
2012-12-17, 00:34:04,VALID,917.09,VALID,0,VALID,96.886,VALID,0,VALID,19.1012,VALID,106,VALID,0,
2012-12-17, 00:35:04,VALID,917.085,VALID,0,VALID,96.9012,VALID,0,VALID,19.0608,VALID,113,VALID,0,
2012-12-17, 00:36:04,VALID,917.08,VALID,0,VALID,96.9089,VALID,0,VALID,19.0413,VALID,122,VALID,0,
2012-12-17, 00:37:04,VALID,917.048,VALID,0,VALID,96.9165,VALID,0,VALID,19.0427,VALID,122,VALID,0,
2012-12-17, 00:38:04,VALID,917.036,VALID,0,VALID,96.9241,VALID,0,VALID,19.0218,VALID,147,VALID,0,
2012-12-17, 00:39:04,VALID,917.014,VALID,0,VALID,96.9317,VALID,0,VALID,19.0218,VALID,147,VALID,0,
2012-12-17, 00:40:04,VALID,917.035,VALID,0,VALID,96.947,VALID,0,VALID,19.0427,VALID,169,VALID,0,
2012-12-17, 00:41:04,VALID,917.037,VALID,0,VALID,96.9622,VALID,0,VALID,19.0218,VALID,169,VALID,0,
2012-12-17, 00:42:04,VALID,917.019,VALID,0,VALID,96.9851,VALID,0,VALID,19.0413,VALID,135,VALID,0,
2012-12-17, 00:43:04,VALID,917.082,VALID,0,VALID,96.9927,VALID,0,VALID,19.0218,VALID,130,VALID,0,
2012-12-17, 00:44:04,VALID,917.072,VALID,0,VALID,96.9927,VALID,0,VALID,18.9828,VALID,130,VALID,0,
2012-12-17, 00:45:04,VALID,917.07,VALID,0,VALID,97.008,VALID,0,VALID,18.9828,VALID,130,VALID,0,
2012-12-17, 00:46:04,VALID,917.07,VALID,0,VALID,97.008,VALID,0,VALID,19.0232,VALID,130,VALID,0,
2012-12-17, 00:47:04,VALID,917.091,VALID,0,VALID,97.0537,VALID,0,VALID,19.0232,VALID,130,VALID,0,
2012-12-17, 00:48:04,VALID,917.078,VALID,0,VALID,97.0461,VALID,0,VALID,19.0232,VALID,130,VALID,0,
2012-12-17, 00:49:04,VALID,917.08,VALID,0,VALID,97.0613,VALID,0,VALID,19.0218,VALID,130,VALID,0,
2012-12-17, 00:50:04,VALID,917.122,VALID,0,VALID,97.0842,VALID,0,VALID,19.0232,VALID,130,VALID,0,
2012-12-17, 00:51:04,VALID,917.133,VALID,0,VALID,97.0766,VALID,0,VALID,19.0232,VALID,130,VALID,0,
2012-12-17, 00:52:04,VALID,917.126,VALID,0,VALID,97.0918,VALID,0,VALID,19.0232,VALID,130,VALID,0,
2012-12-17, 00:53:04,VALID,917.12,VALID,0,VALID,97.0766,VALID,0,VALID,19.0427,VALID,130,VALID,0,
2012-12-17, 00:54:04,VALID,917.118,VALID,0,VALID,97.1147,VALID,0,VALID,19.0232,VALID,130,VALID,0,
2012-12-17, 00:55:04,VALID,917.13,VALID,0,VALID,97.1223,VALID,0,VALID,19.0232,VALID,130,VALID,0,
2012-12-17, 00:56:04,VALID,917.148,VALID,0,VALID,97.1299,VALID,0,VALID,19.0232,VALID,130,VALID,0,
2012-12-17, 00:57:04,VALID,917.18,VALID,0,VALID,97.1376,VALID,0,VALID,19.0037,VALID,130,VALID,0,
2012-12-17, 00:58:04,VALID,917.166,VALID,0,VALID,97.1376,VALID,0,VALID,18.9828,VALID,130,VALID,0,
2012-12-17, 00:59:04,VALID,917.19,VALID,0,VALID,97.1299,VALID,0,VALID,18.9842,VALID,130,VALID,0,
2012-12-17, 01:00:04,VALID,917.198,VALID,0,VALID,97.1299,VALID,0,VALID,18.9647,VALID,149,VALID,0,
2012-12-17, 01:01:04,VALID,917.206,VALID,0,VALID,97.1452,VALID,0,VALID,18.9243,VALID,156,VALID,0,
2012-12-17, 01:02:04,VALID,917.202,VALID,0,VALID,97.1376,VALID,0,VALID,18.9062,VALID,158,VALID,0,
2012-12-17, 01:03:04,VALID,917.173,VALID,0,VALID,97.1452,VALID,0,VALID,18.9257,VALID,182,VALID,0,
2012-12-17, 01:04:04,VALID,917.167,VALID,0,VALID,97.1528,VALID,0,VALID,18.9257,VALID,182,VALID,0,
2012-12-17, 01:05:04,VALID,917.175,VALID,0,VALID,97.1833,VALID,0,VALID,18.9452,VALID,182,VALID,0,
2012-12-17, 01:06:04,VALID,917.177,VALID,0,VALID,97.1681,VALID,0,VALID,18.9243,VALID,182,VALID,0,
2012-12-17, 01:07:04,VALID,917.187,VALID,0,VALID,97.1757,VALID,0,VALID,18.9243,VALID,182,VALID,0,
2012-12-17, 01:08:04,VALID,917.204,VALID,0,VALID,97.1681,VALID,0,VALID,18.9452,VALID,181,VALID,0,
2012-12-17, 01:09:04,VALID,917.18,VALID,0,VALID,97.1757,VALID,0,VALID,18.9257,VALID,187,VALID,0,
2012-12-17, 01:10:04,VALID,917.186,VALID,0,VALID,97.1909,VALID,0,VALID,18.9048,VALID,186,VALID,0,
2012-12-17, 01:11:04,VALID,917.181,VALID,0,VALID,97.1909,VALID,0,VALID,18.9647,VALID,184,VALID,0,
2012-12-17, 01:12:04,VALID,917.181,VALID,0,VALID,97.1909,VALID,0,VALID,18.9438,VALID,184,VALID,0,
2012-12-17, 01:13:04,VALID,917.186,VALID,0,VALID,97.1757,VALID,0,VALID,18.9842,VALID,184,VALID,0,
2012-12-17, 01:14:04,VALID,917.164,VALID,0,VALID,97.1986,VALID,0,VALID,18.9842,VALID,180,VALID,0,
2012-12-17, 01:15:04,VALID,917.176,VALID,0,VALID,97.1833,VALID,0,VALID,18.9842,VALID,180,VALID,0,
2012-12-17, 01:16:04,VALID,917.165,VALID,0,VALID,97.1604,VALID,0,VALID,18.9842,VALID,180,VALID,0,
2012-12-17, 01:17:04,VALID,917.164,VALID,0,VALID,97.1681,VALID,0,VALID,18.9647,VALID,180,VALID,0,
2012-12-17, 01:18:04,VALID,917.156,VALID,0,VALID,97.1604,VALID,0,VALID,18.9842,VALID,180,VALID,0,
2012-12-17, 01:19:04,VALID,917.125,VALID,0,VALID,97.1528,VALID,0,VALID,19.0232,VALID,180,VALID,0,
2012-12-17, 01:20:04,VALID,917.156,VALID,0,VALID,97.1604,VALID,0,VALID,19.0427,VALID,180,VALID,0,
2012-12-17, 01:21:04,VALID,917.125,VALID,0,VALID,97.1681,VALID,0,VALID,19.0413,VALID,180,VALID,0,
2012-12-17, 01:22:04,VALID,917.134,VALID,0,VALID,97.1604,VALID,0,VALID,19.0622,VALID,180,VALID,0,
2012-12-17, 01:23:04,VALID,917.13,VALID,0,VALID,97.1223,VALID,0,VALID,19.0218,VALID,180,VALID,0,
2012-12-17, 01:24:04,VALID,917.096,VALID,0,VALID,97.1223,VALID,0,VALID,19.0037,VALID,180,VALID,0,
2012-12-17, 01:25:04,VALID,917.09,VALID,0,VALID,97.0994,VALID,0,VALID,18.9842,VALID,180,VALID,0,
2012-12-17, 01:26:04,VALID,917.079,VALID,0,VALID,97.0308,VALID,0,VALID,18.9452,VALID,180,VALID,0,
2012-12-17, 01:27:04,VALID,917.106,VALID,0,VALID,97.0003,VALID,0,VALID,18.8867,VALID,180,VALID,0,
2012-12-17, 01:28:04,VALID,917.073,VALID,0,VALID,96.947,VALID,0,VALID,18.8477,VALID,104,VALID,0,
2012-12-17, 01:29:04,VALID,917.072,VALID,0,VALID,96.9775,VALID,0,VALID,18.8477,VALID,21,VALID,0,
2012-12-17, 01:30:04,VALID,917.048,VALID,0,VALID,97.0156,VALID,0,VALID,18.8672,VALID,360,VALID,0,
2012-12-17, 01:31:04,VALID,917.055,VALID,0,VALID,97.0232,VALID,0,VALID,18.8672,VALID,10,VALID,0,
2012-12-17, 01:32:04,VALID,917.013,VALID,0,VALID,97.0461,VALID,0,VALID,18.8477,VALID,340,VALID,0,
2012-12-17, 01:33:04,VALID,917.002,VALID,0,VALID,97.0613,VALID,0,VALID,18.8672,VALID,23,VALID,0,
2012-12-17, 01:34:04,VALID,917.028,VALID,0,VALID,97.0766,VALID,0,VALID,18.8672,VALID,23,VALID,0,
2012-12-17, 01:35:04,VALID,916.964,VALID,0,VALID,97.0766,VALID,0,VALID,18.8477,VALID,23,VALID,0,
2012-12-17, 01:36:04,VALID,916.962,VALID,0,VALID,97.0918,VALID,0,VALID,18.8672,VALID,23,VALID,0,
2012-12-17, 01:37:04,VALID,916.964,VALID,0,VALID,97.1452,VALID,0,VALID,18.8477,VALID,23,VALID,0,
2012-12-17, 01:38:04,VALID,916.957,VALID,0,VALID,97.1147,VALID,0,VALID,18.8477,VALID,22,VALID,0,
2012-12-17, 01:39:04,VALID,916.981,VALID,0,VALID,97.1299,VALID,0,VALID,18.8282,VALID,21,VALID,0,
2012-12-17, 01:40:04,VALID,916.944,VALID,0,VALID,97.1147,VALID,0,VALID,18.8087,VALID,21,VALID,0,
2012-12-17, 01:41:04,VALID,916.934,VALID,0,VALID,97.1528,VALID,0,VALID,18.8282,VALID,21,VALID,0,
2012-12-17, 01:42:04,VALID,916.913,VALID,0,VALID,97.1452,VALID,0,VALID,18.8282,VALID,21,VALID,0,
2012-12-17, 01:43:04,VALID,916.878,VALID,0,VALID,97.1452,VALID,0,VALID,18.8282,VALID,21,VALID,0,
2012-12-17, 01:44:04,VALID,916.842,VALID,0,VALID,97.1833,VALID,0,VALID,18.8282,VALID,21,VALID,0,
2012-12-17, 01:45:04,VALID,916.843,VALID,0,VALID,97.1909,VALID,0,VALID,18.8477,VALID,21,VALID,0,
2012-12-17, 01:46:04,VALID,916.837,VALID,0,VALID,97.1986,VALID,0,VALID,18.8477,VALID,21,VALID,0,
2012-12-17, 01:47:04,VALID,916.799,VALID,0,VALID,97.1909,VALID,0,VALID,18.8477,VALID,21,VALID,0,
2012-12-17, 01:48:04,VALID,916.799,VALID,0,VALID,97.2214,VALID,0,VALID,18.8268,VALID,21,VALID,0,
2012-12-17, 01:49:04,VALID,916.793,VALID,0,VALID,97.2214,VALID,0,VALID,18.8282,VALID,21,VALID,0,
2012-12-17, 01:50:04,VALID,916.819,VALID,0,VALID,97.229,VALID,0,VALID,18.8477,VALID,21,VALID,0,
2012-12-17, 01:51:04,VALID,916.788,VALID,0,VALID,97.229,VALID,0,VALID,18.8477,VALID,21,VALID,0,
2012-12-17, 01:52:04,VALID,916.79,VALID,0,VALID,97.2367,VALID,0,VALID,18.8477,VALID,34,VALID,0,
2012-12-17, 01:53:04,VALID,916.832,VALID,0,VALID,97.2367,VALID,0,VALID,18.8477,VALID,29,VALID,0,
2012-12-17, 01:54:04,VALID,916.802,VALID,0,VALID,97.2443,VALID,0,VALID,18.8477,VALID,37,VALID,0,
2012-12-17, 01:55:04,VALID,916.807,VALID,0,VALID,97.2824,VALID,0,VALID,18.8477,VALID,35,VALID,0,
2012-12-17, 01:56:04,VALID,916.81,VALID,0,VALID,97.2824,VALID,0,VALID,18.8672,VALID,36,VALID,0,
2012-12-17, 01:57:04,VALID,916.803,VALID,0,VALID,97.2672,VALID,0,VALID,18.8282,VALID,36,VALID,0,
2012-12-17, 01:58:04,VALID,916.808,VALID,0,VALID,97.2672,VALID,0,VALID,18.8477,VALID,38,VALID,0,
2012-12-17, 01:59:04,VALID,916.8,VALID,0,VALID,97.2977,VALID,0,VALID,18.8282,VALID,68,VALID,0,
2012-12-17, 02:00:04,VALID,916.788,VALID,0,VALID,97.29,VALID,0,VALID,18.8282,VALID,66,VALID,0,
2012-12-17, 02:01:04,VALID,916.786,VALID,0,VALID,97.29,VALID,0,VALID,18.8282,VALID,66,VALID,0,
2012-12-17, 02:02:04,VALID,916.782,VALID,0,VALID,97.2977,VALID,0,VALID,18.8297,VALID,69,VALID,0,
2012-12-17, 02:03:04,VALID,916.773,VALID,0,VALID,97.3053,VALID,0,VALID,18.8297,VALID,69,VALID,0,
2012-12-17, 02:04:04,VALID,916.753,VALID,0,VALID,97.2824,VALID,0,VALID,18.8087,VALID,69,VALID,0,
2012-12-17, 02:05:04,VALID,916.731,VALID,0,VALID,97.2977,VALID,0,VALID,18.7878,VALID,69,VALID,0,
2012-12-17, 02:06:04,VALID,916.716,VALID,0,VALID,97.2977,VALID,0,VALID,18.8282,VALID,69,VALID,0,
2012-12-17, 02:07:04,VALID,916.693,VALID,0,VALID,97.3053,VALID,0,VALID,18.8477,VALID,54,VALID,0,
2012-12-17, 02:08:04,VALID,916.671,VALID,0,VALID,97.3053,VALID,0,VALID,18.8477,VALID,54,VALID,0,
2012-12-17, 02:09:04,VALID,916.643,VALID,0,VALID,97.29,VALID,0,VALID,18.8867,VALID,54,VALID,0,
2012-12-17, 02:10:04,VALID,916.607,VALID,0,VALID,97.2824,VALID,0,VALID,18.8867,VALID,54,VALID,0,
2012-12-17, 02:11:04,VALID,916.579,VALID,0,VALID,97.2977,VALID,0,VALID,18.9077,VALID,54,VALID,0,
2012-12-17, 02:12:04,VALID,916.562,VALID,0,VALID,97.2748,VALID,0,VALID,18.9257,VALID,54,VALID,0,
2012-12-17, 02:13:04,VALID,916.545,VALID,0,VALID,97.29,VALID,0,VALID,18.9452,VALID,54,VALID,0,
2012-12-17, 02:14:04,VALID,916.496,VALID,0,VALID,97.2824,VALID,0,VALID,18.9452,VALID,54,VALID,0,
2012-12-17, 02:15:04,VALID,916.493,VALID,0,VALID,97.2824,VALID,0.107441,VALID,18.9633,VALID,54,VALID,0,
2012-12-17, 02:16:04,VALID,916.457,VALID,0,VALID,97.2748,VALID,0.107441,VALID,18.9633,VALID,54,VALID,0,
2012-12-17, 02:17:04,VALID,916.489,VALID,0,VALID,97.2595,VALID,0.107441,VALID,18.9828,VALID,54,VALID,0,
2012-12-17, 02:18:04,VALID,916.445,VALID,0,VALID,97.2214,VALID,0.107441,VALID,19.0037,VALID,54,VALID,0,
2012-12-17, 02:19:04,VALID,916.427,VALID,0,VALID,97.2367,VALID,0.107441,VALID,19.0023,VALID,54,VALID,0,
2012-12-17, 02:20:04,VALID,916.399,VALID,0,VALID,97.2214,VALID,0.107441,VALID,19.0232,VALID,54,VALID,0,
2012-12-17, 02:21:04,VALID,916.36,VALID,0,VALID,97.2367,VALID,0.107441,VALID,18.9828,VALID,54,VALID,0,
2012-12-17, 02:22:04,VALID,916.329,VALID,0,VALID,97.2214,VALID,0.107441,VALID,19.0023,VALID,54,VALID,0,
2012-12-17, 02:23:04,VALID,916.333,VALID,0,VALID,97.2214,VALID,0,VALID,18.9814,VALID,54,VALID,0,
2012-12-17, 02:24:04,VALID,916.329,VALID,0,VALID,97.229,VALID,0,VALID,19.0023,VALID,54,VALID,0,
2012-12-17, 02:25:04,VALID,916.312,VALID,0,VALID,97.2138,VALID,0,VALID,18.9828,VALID,54,VALID,0,
2012-12-17, 02:26:04,VALID,916.291,VALID,0,VALID,97.1833,VALID,0,VALID,18.9828,VALID,54,VALID,0,
2012-12-17, 02:27:04,VALID,916.279,VALID,0,VALID,97.1757,VALID,0.107441,VALID,19.0218,VALID,54,VALID,0,
2012-12-17, 02:28:04,VALID,916.282,VALID,0,VALID,97.1833,VALID,0,VALID,18.9828,VALID,54,VALID,0,
2012-12-17, 02:29:04,VALID,916.259,VALID,0,VALID,97.1223,VALID,0.107441,VALID,18.9619,VALID,54,VALID,0,
2012-12-17, 02:30:04,VALID,916.238,VALID,0,VALID,97.1071,VALID,0,VALID,18.9633,VALID,54,VALID,0,
2012-12-17, 02:31:04,VALID,916.222,VALID,0,VALID,97.0766,VALID,0,VALID,19.0037,VALID,54,VALID,0,
2012-12-17, 02:32:04,VALID,916.205,VALID,0,VALID,97.0918,VALID,0,VALID,18.9828,VALID,54,VALID,0,
2012-12-17, 02:33:04,VALID,916.206,VALID,0,VALID,97.0537,VALID,0,VALID,18.9828,VALID,54,VALID,0,
2012-12-17, 02:34:04,VALID,916.223,VALID,0,VALID,97.0308,VALID,0,VALID,18.9842,VALID,54,VALID,0,
2012-12-17, 02:35:04,VALID,916.19,VALID,0,VALID,96.9851,VALID,0,VALID,18.9828,VALID,54,VALID,0,
2012-12-17, 02:36:04,VALID,916.198,VALID,0,VALID,96.9394,VALID,0,VALID,19.0037,VALID,158,VALID,0,
2012-12-17, 02:37:04,VALID,916.145,VALID,0,VALID,96.9089,VALID,0,VALID,19.0037,VALID,158,VALID,0,
2012-12-17, 02:38:04,VALID,916.134,VALID,0,VALID,96.9089,VALID,0,VALID,18.9633,VALID,158,VALID,0,
2012-12-17, 02:39:04,VALID,916.087,VALID,0,VALID,96.9089,VALID,0,VALID,18.9633,VALID,158,VALID,0,
2012-12-17, 02:40:04,VALID,916.096,VALID,0,VALID,96.8784,VALID,0,VALID,18.9633,VALID,158,VALID,0,
2012-12-17, 02:41:04,VALID,916.074,VALID,0,VALID,96.886,VALID,0,VALID,18.9438,VALID,158,VALID,0,
2012-12-17, 02:42:04,VALID,916.078,VALID,0,VALID,96.8784,VALID,0,VALID,18.9243,VALID,158,VALID,0,
2012-12-17, 02:43:04,VALID,916.037,VALID,0,VALID,96.8784,VALID,0,VALID,18.9257,VALID,158,VALID,0,
2012-12-17, 02:44:04,VALID,916.022,VALID,0,VALID,96.886,VALID,0,VALID,18.9048,VALID,138,VALID,0,
2012-12-17, 02:45:04,VALID,916.022,VALID,0,VALID,96.8784,VALID,0,VALID,18.9229,VALID,138,VALID,0,
2012-12-17, 02:46:04,VALID,916.002,VALID,0,VALID,96.886,VALID,0.107441,VALID,18.9229,VALID,68,VALID,0,
2012-12-17, 02:47:04,VALID,915.974,VALID,0,VALID,96.8707,VALID,0,VALID,18.9034,VALID,68,VALID,0,
2012-12-17, 02:48:04,VALID,915.943,VALID,0,VALID,96.8479,VALID,0.107441,VALID,18.9034,VALID,68,VALID,0,
2012-12-17, 02:49:04,VALID,915.943,VALID,0,VALID,96.825,VALID,0.107441,VALID,18.9048,VALID,68,VALID,0,
2012-12-17, 02:50:04,VALID,915.896,VALID,0,VALID,96.8326,VALID,0.107441,VALID,18.8839,VALID,68,VALID,0,
2012-12-17, 02:51:04,VALID,915.886,VALID,0,VALID,96.8326,VALID,0.107441,VALID,18.9048,VALID,67,VALID,0,
2012-12-17, 02:52:04,VALID,915.849,VALID,0,VALID,96.825,VALID,0,VALID,18.8839,VALID,68,VALID,0,
2012-12-17, 02:53:04,VALID,915.813,VALID,0,VALID,96.8174,VALID,0.107441,VALID,18.8839,VALID,68,VALID,0,
2012-12-17, 02:54:04,VALID,915.805,VALID,0,VALID,96.7793,VALID,0.107441,VALID,18.9243,VALID,68,VALID,0,
2012-12-17, 02:55:04,VALID,915.816,VALID,0,VALID,96.8021,VALID,0.107441,VALID,18.9229,VALID,68,VALID,0,
2012-12-17, 02:56:04,VALID,915.766,VALID,0,VALID,96.7945,VALID,0.107441,VALID,18.9229,VALID,68,VALID,0,
2012-12-17, 02:57:04,VALID,915.753,VALID,0,VALID,96.7945,VALID,0.107441,VALID,18.9243,VALID,68,VALID,0,
2012-12-17, 02:58:04,VALID,915.758,VALID,0,VALID,96.7869,VALID,0.107441,VALID,18.9229,VALID,70,VALID,0,
2012-12-17, 02:59:04,VALID,915.735,VALID,0,VALID,96.7793,VALID,0.107441,VALID,18.9034,VALID,96,VALID,0,
2012-12-17, 03:00:04,VALID,915.751,VALID,0,VALID,96.764,VALID,0,VALID,18.8853,VALID,96,VALID,0,
2012-12-17, 03:01:04,VALID,915.694,VALID,0,VALID,96.7488,VALID,0,VALID,18.8658,VALID,136,VALID,0,
2012-12-17, 03:02:04,VALID,915.71,VALID,0,VALID,96.7488,VALID,0,VALID,18.8658,VALID,136,VALID,0,
2012-12-17, 03:03:04,VALID,915.707,VALID,0,VALID,96.7488,VALID,0,VALID,18.8463,VALID,136,VALID,0,
2012-12-17, 03:04:04,VALID,915.746,VALID,0,VALID,96.7564,VALID,0,VALID,18.8268,VALID,136,VALID,0,
2012-12-17, 03:05:04,VALID,915.728,VALID,0,VALID,96.7488,VALID,0,VALID,18.8672,VALID,136,VALID,0,
2012-12-17, 03:06:04,VALID,915.724,VALID,0,VALID,96.7488,VALID,0,VALID,18.8477,VALID,136,VALID,0,
2012-12-17, 03:07:04,VALID,915.795,VALID,0,VALID,96.7793,VALID,0,VALID,18.8045,VALID,136,VALID,0,
2012-12-17, 03:08:04,VALID,915.767,VALID,0,VALID,96.7793,VALID,0,VALID,18.8672,VALID,136,VALID,0,
2012-12-17, 03:09:04,VALID,915.777,VALID,0,VALID,96.7945,VALID,0,VALID,18.8477,VALID,136,VALID,0,
2012-12-17, 03:10:04,VALID,915.775,VALID,0,VALID,96.8098,VALID,0,VALID,18.8268,VALID,136,VALID,0,
2012-12-17, 03:11:04,VALID,915.761,VALID,0,VALID,96.8174,VALID,0,VALID,18.8073,VALID,136,VALID,0,
2012-12-17, 03:12:04,VALID,915.743,VALID,0,VALID,96.825,VALID,0,VALID,18.8477,VALID,136,VALID,0,
2012-12-17, 03:13:04,VALID,915.768,VALID,0,VALID,96.8403,VALID,0,VALID,18.8087,VALID,136,VALID,0,
2012-12-17, 03:14:04,VALID,915.73,VALID,0,VALID,96.8403,VALID,0,VALID,18.7878,VALID,136,VALID,0,
2012-12-17, 03:15:04,VALID,915.725,VALID,0,VALID,96.8326,VALID,0,VALID,18.7683,VALID,136,VALID,0,
2012-12-17, 03:16:04,VALID,915.698,VALID,0,VALID,96.8707,VALID,0,VALID,18.7488,VALID,136,VALID,0,
2012-12-17, 03:17:04,VALID,915.685,VALID,0,VALID,96.8784,VALID,0,VALID,18.7892,VALID,136,VALID,0,
2012-12-17, 03:18:04,VALID,915.68,VALID,0,VALID,96.8936,VALID,0,VALID,18.7488,VALID,136,VALID,0,
2012-12-17, 03:19:04,VALID,915.663,VALID,0,VALID,96.9012,VALID,0,VALID,18.8087,VALID,136,VALID,0,
2012-12-17, 03:20:04,VALID,915.651,VALID,0,VALID,96.9241,VALID,0,VALID,18.8087,VALID,136,VALID,0,
2012-12-17, 03:21:04,VALID,915.668,VALID,0,VALID,96.9317,VALID,0,VALID,18.7878,VALID,136,VALID,0,
2012-12-17, 03:22:04,VALID,915.664,VALID,0,VALID,96.9546,VALID,0,VALID,18.7878,VALID,136,VALID,0,
2012-12-17, 03:23:04,VALID,915.681,VALID,0,VALID,96.947,VALID,0,VALID,18.7892,VALID,136,VALID,0,
2012-12-17, 03:24:04,VALID,915.646,VALID,0,VALID,96.947,VALID,0,VALID,18.7683,VALID,136,VALID,0,
2012-12-17, 03:25:04,VALID,915.588,VALID,0,VALID,96.9622,VALID,0,VALID,18.8282,VALID,136,VALID,0,
2012-12-17, 03:26:04,VALID,915.575,VALID,0,VALID,96.9775,VALID,0,VALID,18.8282,VALID,136,VALID,0,
2012-12-17, 03:27:04,VALID,915.521,VALID,0,VALID,96.9927,VALID,0,VALID,18.8073,VALID,136,VALID,0,
2012-12-17, 03:28:04,VALID,915.488,VALID,0,VALID,97.008,VALID,0,VALID,18.8073,VALID,136,VALID,0,
2012-12-17, 03:29:04,VALID,915.489,VALID,0,VALID,97.0003,VALID,0,VALID,18.8268,VALID,136,VALID,0,
2012-12-17, 03:30:04,VALID,915.488,VALID,0,VALID,97.0156,VALID,0,VALID,18.8477,VALID,136,VALID,0,
2012-12-17, 03:31:04,VALID,915.487,VALID,0,VALID,97.008,VALID,0,VALID,18.8254,VALID,136,VALID,0,
2012-12-17, 03:32:04,VALID,915.504,VALID,0,VALID,97.0308,VALID,0,VALID,18.8477,VALID,136,VALID,0,
2012-12-17, 03:33:04,VALID,915.493,VALID,0,VALID,97.0385,VALID,0,VALID,18.8477,VALID,136,VALID,0,
2012-12-17, 03:34:04,VALID,915.484,VALID,0,VALID,97.0461,VALID,0,VALID,18.8463,VALID,136,VALID,0,
2012-12-17, 03:35:04,VALID,915.461,VALID,0,VALID,97.0537,VALID,0,VALID,18.8867,VALID,136,VALID,0,
2012-12-17, 03:36:04,VALID,915.491,VALID,0,VALID,97.0613,VALID,0,VALID,18.8867,VALID,136,VALID,0,
2012-12-17, 03:37:04,VALID,915.468,VALID,0,VALID,97.0766,VALID,0,VALID,18.8867,VALID,136,VALID,0,
2012-12-17, 03:38:04,VALID,915.494,VALID,0,VALID,97.0537,VALID,0,VALID,18.8672,VALID,136,VALID,0,
2012-12-17, 03:39:04,VALID,915.508,VALID,0,VALID,97.0308,VALID,0,VALID,18.8282,VALID,136,VALID,0,
2012-12-17, 03:40:04,VALID,915.513,VALID,0,VALID,97.008,VALID,0,VALID,18.8102,VALID,136,VALID,0,
2012-12-17, 03:41:04,VALID,915.5,VALID,0,VALID,96.9927,VALID,0,VALID,18.7503,VALID,136,VALID,0,
2012-12-17, 03:42:04,VALID,915.546,VALID,0,VALID,97.008,VALID,0,VALID,18.7503,VALID,136,VALID,0,
2012-12-17, 03:43:04,VALID,915.493,VALID,0,VALID,97.0232,VALID,0,VALID,18.7308,VALID,136,VALID,0,
2012-12-17, 03:44:04,VALID,915.479,VALID,0,VALID,97.0461,VALID,0,VALID,18.7697,VALID,136,VALID,0,
2012-12-17, 03:45:04,VALID,915.468,VALID,0,VALID,97.0537,VALID,0,VALID,18.7697,VALID,136,VALID,0,
2012-12-17, 03:46:04,VALID,915.453,VALID,0,VALID,97.0842,VALID,0,VALID,18.7697,VALID,137,VALID,0,
2012-12-17, 03:47:04,VALID,915.442,VALID,0,VALID,97.1147,VALID,0,VALID,18.7683,VALID,144,VALID,0,
2012-12-17, 03:48:04,VALID,915.468,VALID,0,VALID,97.1071,VALID,0,VALID,18.7892,VALID,144,VALID,0,
2012-12-17, 03:49:04,VALID,915.461,VALID,0,VALID,97.1223,VALID,0,VALID,18.8087,VALID,144,VALID,0,
2012-12-17, 03:50:04,VALID,915.447,VALID,0,VALID,97.1223,VALID,0,VALID,18.7892,VALID,144,VALID,0,
2012-12-17, 03:51:04,VALID,915.453,VALID,0,VALID,97.1299,VALID,0,VALID,18.7892,VALID,144,VALID,0,
2012-12-17, 03:52:04,VALID,915.441,VALID,0,VALID,97.1147,VALID,0,VALID,18.8282,VALID,144,VALID,0,
2012-12-17, 03:53:04,VALID,915.416,VALID,0,VALID,97.1071,VALID,0,VALID,18.8282,VALID,144,VALID,0,
2012-12-17, 03:54:04,VALID,915.391,VALID,0,VALID,97.1071,VALID,0,VALID,18.8282,VALID,156,VALID,0,
2012-12-17, 03:55:04,VALID,915.339,VALID,0,VALID,97.0842,VALID,0,VALID,18.8477,VALID,156,VALID,0,
2012-12-17, 03:56:04,VALID,915.333,VALID,0,VALID,97.1147,VALID,0,VALID,18.8477,VALID,156,VALID,0,
2012-12-17, 03:57:04,VALID,915.334,VALID,0,VALID,97.1071,VALID,0,VALID,18.8477,VALID,156,VALID,0,
2012-12-17, 03:58:04,VALID,915.318,VALID,0,VALID,97.0918,VALID,0,VALID,18.8477,VALID,156,VALID,0,
2012-12-17, 03:59:04,VALID,915.308,VALID,0,VALID,97.0918,VALID,0,VALID,18.8477,VALID,156,VALID,0,